Regional Weather Roundup
Issued by NWS Bismarck, ND

Home | Current Version | Previous Version | Text Only | Print | Product List | Glossary On
Versions: 1 2 3 4 5 6 7 8 9 10 11 12 13 14 15 16 17 18 19 20 21 22 23 24 25 26 27 28 29 30 31 32 33 34 35 36 37 38 39 40 41 42 43 44 45 46 47 48 49 50
000
ASUS43 KBIS 202110
RWRBIS

NWR BROADCAST TEXT
NATIONAL WEATHER SERVICE BISMARCK ND
400 PM CDT SUN AUG 20 2017

NOTE: "FAIR" INDICATES FEW OR NO CLOUDS BELOW 12,000 FEET WITH NO
SIGNIFICANT WEATHER AND/OR OBSTRUCTIONS TO VISIBILITY.


CITY           SKY/WX    TMP DP  RH WIND       PRES   REMARKS
WILLISTON      SUNNY     77  29  17 VRB3      30.01F
MINOT          SUNNY     77  36  22 W12       30.01F
MINOT AFB      SUNNY     75  37  24 N3        29.99F
BISMARCK       CLOUDY    71  45  39 NE7       30.02F
DICKINSON      CLOUDY    71  42  35 SE7       30.04F
GARRISON         N/A     71  43  36 VRB5      30.02F
HETTINGER ARPT PTSUNNY   72  46  39 E10G17    30.06F
JAMESTOWN      CLOUDY    72  50  45 NW7       30.02F
CARRINGTON     FAIR      72  46  40 NW9       30.04F
LINTON         FAIR      66  52  59 S5        30.07S
TIOGA          FAIR      73  30  20 S5        30.03F
$$

CITY           SKY/WX    TMP DP  RH WIND       PRES   REMARKS
GRAND FORKS    MOSUNNY   78  48  34 NW12G21   29.96S
GRAND FORKS AF MOSUNNY   77  45  31 N12G17    29.98S
DEVILS LAKE    SUNNY     73  43  33 W9        30.02
FARGO          CLOUDY    76  50  40 VRB6      29.99S
CANDO          FAIR      75  43  31 W10       30.02S
CAVALIER       FAIR      75  45  33 NW9G20    29.95F
GWINNER        CLEAR     72  52  49 CALM      30.03F
ROLLA          FAIR      72  43  35 NW14      30.02F
WALHALLA       FAIR      75  72  88 W9G16     29.96F
$$

CITY           SKY/WX    TMP DP  RH WIND       PRES   REMARKS
ABERDEEN       CLOUDY    69  57  65 N3        30.04S
MOBRIDGE       CLOUDY    75  50  41 E7        30.02S
BUFFALO          N/A     83  38  20 E12G31    29.95F
RAPID CITY     SUNNY     79  50  36 SE14      30.03F
GLASGOW        SUNNY     80  34  19 S13G22    29.94F
SIDNEY         CLOUDY    77  39  25 S7        30.00F
WOLF POINT     SUNNY     80  35  19 SE8       29.96F
GLENDIVE       SUNNY     78  38  23 E12       30.00F
MILES CITY     MOSUNNY   85  36  17 SE14      29.94F
BAKER          CLOUDY    79  38  22 E15G21    30.02F
$$

CITY           SKY/WX    TMP DP  RH WIND       PRES   REMARKS
BILLINGS       MOSUNNY   79  40  24 S3        29.99F
GREAT FALLS    CLOUDY    76  23  14 NW12      30.01F
REGINA         PTSUNNY   68  36  30 VRB2      29.99F
ESTEVAN        CLOUDY    73  32  21 CALM      30.00F
$$





USA.gov is the U.S. government's official web portal to all federal, state and local government web resources and services.